TimeEDT,TemperatureF,Dew PointF,Humidity,Sea Level PressureIn,VisibilityMPH,Wind Direction,Wind SpeedMPH,Gust SpeedMPH,PrecipitationIn,Events,Conditions,WindDirDegrees,DateUTC
12:56 AM,57.0,53.1,87,29.96,10.0,Calm,Calm,-,N/A,,Overcast,0,2012-10-02 04:56:00
1:56 AM,57.9,53.1,84,29.97,10.0,Calm,Calm,-,N/A,,Overcast,0,2012-10-02 05:56:00
2:56 AM,59.0,54.0,83,29.96,10.0,NNE,3.5,-,N/A,,Mostly Cloudy,20,2012-10-02 06:56:00
3:56 AM,60.1,55.0,83,29.98,10.0,Calm,Calm,-,N/A,,Overcast,0,2012-10-02 07:56:00
4:56 AM,60.1,55.0,83,29.97,10.0,Calm,Calm,-,N/A,,Overcast,0,2012-10-02 08:56:00
5:56 AM,60.1,55.9,86,30.00,10.0,Calm,Calm,-,N/A,,Overcast,0,2012-10-02 09:56:00
6:56 AM,61.0,55.0,81,29.99,10.0,Calm,Calm,-,N/A,,Overcast,0,2012-10-02 10:56:00
7:56 AM,62.1,57.0,84,30.02,10.0,ESE,3.5,-,N/A,,Overcast,110,2012-10-02 11:56:00
8:56 AM,66.0,55.0,68,30.02,10.0,SE,4.6,-,N/A,,Overcast,130,2012-10-02 12:56:00
9:56 AM,68.0,50.0,52,30.03,10.0,SE,5.8,-,N/A,,Mostly Cloudy,130,2012-10-02 13:56:00
10:56 AM,70.0,54.0,57,30.02,10.0,SE,6.9,-,N/A,,Mostly Cloudy,130,2012-10-02 14:56:00
11:56 AM,71.1,51.1,49,30.01,10.0,SE,12.7,-,N/A,,Overcast,140,2012-10-02 15:56:00
12:56 PM,69.1,57.0,65,30.01,10.0,SE,9.2,-,N/A,,Overcast,130,2012-10-02 16:56:00
1:56 PM,66.9,57.9,73,30.01,8.0,East,4.6,-,0.01,Rain,Light Rain,100,2012-10-02 17:56:00
2:56 PM,64.9,60.1,84,29.99,4.0,East,6.9,-,0.03,Rain,Light Rain,100,2012-10-02 18:56:00
4:17 PM,64.4,60.8,88,29.98,8.0,East,4.6,-,0.00,Rain,Light Rain,90,2012-10-02 20:17:00
4:56 PM,64.0,62.1,93,29.97,4.0,East,6.9,-,0.04,Rain,Light Rain,90,2012-10-02 20:56:00
5:56 PM,64.0,62.1,93,29.97,4.0,East,5.8,-,0.01,Rain,Light Rain,90,2012-10-02 21:56:00
6:14 PM,64.4,62.6,94,29.97,4.0,East,6.9,-,0.00,Rain,Light Rain,90,2012-10-02 22:14:00
6:56 PM,64.9,63.0,93,29.97,5.0,East,3.5,-,0.01,Rain,Light Rain,80,2012-10-02 22:56:00
7:56 PM,64.9,63.0,93,29.98,5.0,East,5.8,-,0.01,Rain,Light Rain,90,2012-10-02 23:56:00
10:56 PM,66.9,66.9,100,29.98,0.5,Calm,Calm,-,0.00,,Light Drizzle,0,2012-10-03 02:56:00
11:56 PM,66.9,66.9,100,29.97,0.5,Calm,Calm,-,0.01,,Light Drizzle,0,2012-10-03 03:56:00